カタログに戻る

STARLINK-4092

運用中通信VLEO
NORAD 52838·PAYLOAD·🇺🇸 United States

打ち上げ Jun 17, 2022 から Cape Canaveral Space Force Station

Loading…

次のパス (今後24時間)

TLE

最新Source: CelesTrak SupGP

元期: Sep 15, 2026, 02:37 UTC

1 52838C 22062J   26258.10951389 -.00034154  00000+0 -10983-2 0  2586
2 52838  53.1586 253.9280 0001376  89.6787 212.1099 15.31719761    13

AllMySatでSTARLINK-4092をリアルタイム追跡

Download on the App Store